Location: St. Louis
(38.6270°N, 90.1994°W)
Time: 07:14:13
(UTC-06:00)

A-11 Canister half - Pass Details

Date: 14 December 2021
Orbit: 1524 x 1684 km, 47.3° (Epoch: 17 January)

Event Time Altitude Azimuth Distance (km) Brightness Sun altitude
Rises 07:49:16 0° 284° (WNW) 4,890 11.0 5.5°
Reaches altitude 10° 07:57:18 10° 245° (WSW) 3,846 10.9 6.7°
Maximum altitude 07:57:58 10° 241° (WSW) 3,834 10.9 6.8°
Drops below altitude 10° 07:58:38 10° 237° (WSW) 3,836 10.9 6.9°
Sets 08:06:34 0° 196° (SSW) 4,758 11.9 8.2°
